Location: Newark
(36.2350°N, 59.6408°E)
Time: 05:49:57
(UTC+00:00)

ISS - Pass Details

Date: 27 November 2019
Orbit: 411 x 421 km, 51.6° (Epoch: 16 December)

Event Time Altitude Azimuth Distance (km) Brightness Sun altitude
Rises 13:28:48 0° 271° (W) 2,347 1.6 -8.4°
Reaches altitude 10° 13:31:31 10° 295° (WNW) 1,490 -0.3 -9.0°
Maximum altitude 13:33:37 15° 334° (NNW) 1,207 -1.3 -9.4°
Drops below altitude 10° 13:35:43 10° 13° (NNE) 1,498 -1.3 -9.8°
Enters shadow 13:36:44 - 24° (NNE) 1,788 -1.0 -10.0°
